星链-3586 (STARLINK-3586 )

导读

STARLINK-3586是美国SpaceX公司星链(Starlink)星座的一颗卫星,于2022年2月25日发射升空。作为星链第二代卫星,它运行于近地轨道,配备星间激光通信终端,可支持高速低延迟宽带互联网服务,为全球尤其是偏远地区提供网络接入,是SpaceX打造全球太空互联网基础设施的组成部分。

Basic Information
目录编号:
51795
目录名称:
STARLINK-3586
国际标识:
2022-017AD
轨道中心:
EARTH
卫星名称:
星链-3586
卫星全名:
星链-3586 (STARLINK-3586 )
卫星状态:
在轨 (已飞行1652 天)
发射日期:
2022-02-25 UTC
国别 :
美国 (US)
星等 :
--
Orbit Information
数据来源 国际轨道数据 AOE轨道数据
星历时间 2026-09-03T20:36:27+0800
1天前
查看轨道信息
2026-09-02T08:00:00+0800
2天前
查看轨道信息
半长轴 6840.872km 6840.856km
偏心率 0.0001156 0.0000717
轨道倾角 53.159° 53.159°
近地点辐角 92.700° 100.247°
升交点赤经 258.728° 265.859°
平近点角 267.414° 109.645°
近地点 461.944km 462.228km
远地点 463.526km 463.21km
周期 93.848分钟 93.848分钟
每日圈数 15.343896 15.343947
Detailed Information
固有亮度:
5
最大亮度:
2.5
卫星平台:
Starlink v1.5
覆盖范围:
全球
运营商:
太空探索技术公司
运营商所在国:
美国
制造商(研发单位):
太空探索技术公司
制造商所在国:
美国
使用方式:
暂无
Satellite Introduction
星链(Starlink)计划是由太空探索技术公司(SpaceX)提出的一个巨型低轨卫星互联网星座项目,计划在2019年至2024年间在太空搭建由约1.2万颗卫星组成的“星链”网络,其中1584颗将部署在地球上空550千米处的近地轨道,并从2020年开始工作。该卫星仍在工作。
2D Orbit Map
3D Orbit Map
Orbit Altitude Analysis Chart
Orbit Inclination Analysis Chart
Orbit Comprehensive Analysis Chart
View Comprehensive Chart
Conjunction Data List
Event ID Objects TCA Miss Dist (km) Collision Risk Probability Collision Risk Index (CRI) Action
CDM_260904-143905-179506-539121
2026-09-04T
14:39:56+0000
0.990 km
远距离
2.707059E-5 中风险 0.64
CDM_260906-151105-179506-277121
2026-09-06T
15:11:27+0000
1.565 km
极远距离
2.754505E-6 低风险 0.44
CDM_260905-043905-179505-363621
2026-09-05T
04:39:55+0000
2.625 km
极远距离
1.319099E-6 低风险 0.37
CDM_260904-152704-926105-179523
CS1 (49261)
2026-09-04T
15:27:25+0000
2.480 km
极远距离
1.302874E-6 低风险 0.37
CDM_260905-193705-146705-179521
2026-09-05T
19:37:25+0000
2.438 km
极远距离
1.126322E-6 低风险 0.36
CDM_260905-014505-179506-237322
2026-09-05T
01:45:36+0000
2.808 km
极远距离
4.809395E-7 极低风险 0.29